Location: Niles Junction
(37.5763°N, 121.9714°W)
Time: 03:49:30
(UTC+00:00)

Nadezhda 4 Rocket - Pass Details

Date: 29 October 2020
Orbit: 950 x 991 km, 82.9° (Epoch: 23 November)

Event Time Altitude Azimuth Distance (km) Brightness Sun altitude
Rises 12:01:20 0° 180° (S) 3,607 6.9 -30.0°
Reaches altitude 10° 12:03:49 10° 179° (S) 2,665 6.2 -29.6°
Maximum altitude 12:09:53 77° 95° (E) 978 4.0 -28.4°
Drops below altitude 10° 12:16:01 10° 10° (N) 2,692 6.4 -27.1°
Sets 12:18:32 0° 9° (N) 3,647 7.1 -26.7°
